N5ZKK Weather Reports


Display with metric or nautical units.
time (UTC)temp
F
wind
direction
speed
MPH
gust
MPH
rain 1hr
in
rain 24hr
in
rain mn
in
humidity
%
barometer
mb
20260508012530 62 191 2.0 3.0 0.00 0.00 0.00 84 1017.5
20260508012513 61 341 0.0 1.0 0.00 0.00 0.00 84 1016.7
20260508011532 62 277 4.0 8.0 0.00 0.00 0.00 85 1017.5
20260508010516 62 95 3.0 5.0 0.00 0.00 0.00 84 1016.4
20260508005518 62 12 1.0 3.0 0.00 0.00 0.00 83 1017.4
20260508005513 62 351 1.0 3.0 0.00 0.00 0.00 83 1016.3
20260508004521 62 261 3.0 5.0 0.00 0.00 0.00 83 1016.9
20260508003517 63 236 1.0 3.0 0.00 0.00 0.00 84 1016.5
20260508002545 62 42 2.0 3.0 0.00 0.00 0.00 83 1016.5
20260508002513 62 76 0.0 1.0 0.00 0.00 0.00 83 1015.8
20260508001527 62 23 0.0 1.0 0.00 0.00 0.00 82 1016.6
20260508000530 62 43 2.0 4.0 0.00 0.00 0.00 83 1016.4
20260507235533 62 39 2.0 5.0 0.00 0.00 0.00 83 1016.6
20260507235513 62 14 2.0 4.0 0.00 0.00 0.00 83 1015.8
20260507234515 62 55 5.0 9.0 0.00 0.00 0.00 83 1016.8
20260507233519 62 55 3.0 5.0 0.00 0.00 0.00 84 1017.3
20260507232520 62 68 2.0 4.0 0.00 0.00 0.00 85 1017.6
20260507232513 62 11 2.0 4.0 0.00 0.00 0.00 85 1017.0
20260507231522 62 336 2.0 4.0 0.00 0.00 0.00 85 1017.8
20260507230524 62 93 3.0 4.0 0.00 0.00 0.00 86 1017.9
20260507225547 61 36 4.0 7.0 0.00 0.00 0.00 85 1018.7
20260507225513 61 46 4.0 7.0 0.00 0.00 0.00 85 1017.8
20260507224528 62 284 7.0 12.0 0.00 0.00 0.00 87 1017.4
20260507223531 62 79 3.0 4.0 0.00 0.00 0.00 84 1017.7
20260507222516 62 18 4.0 7.0 0.00 0.00 0.00 82 1017.9
20260507222513 62 56 3.0 7.0 0.00 0.00 0.00 82 1017.4
20260507221518 62 54 4.0 9.0 0.00 0.00 0.00 82 1018.1
20260507220540 62 108 3.0 5.0 0.00 0.00 0.00 83 1018.3
20260507215516 62 16 4.0 7.0 0.00 0.00 0.00 82 1018.3
20260507215513 62 29 5.0 7.0 0.00 0.00 0.00 81 1017.7
20260507214524 63 49 3.0 6.0 0.00 0.00 0.00 81 1019.2
20260507213527 63 28 2.0 4.0 0.00 0.00 0.00 81 1019.2
20260507212529 63 33 3.0 4.0 0.00 0.00 0.00 81 1019.4
20260507212513 62 26 3.0 5.0 0.00 0.00 0.00 80 1018.8
20260507211531 63 0 4.0 7.0 0.00 0.00 0.00 80 1019.6
20260507210516 63 42 5.0 7.0 0.00 0.00 0.00 80 1019.4
20260507205518 64 30 4.0 7.0 0.00 0.00 0.00 79 1019.4
20260507205513 64 27 4.0 6.0 0.00 0.00 0.00 79 1018.3
20260507204520 65 11 2.0 4.0 0.00 0.00 0.00 78 1019.5
20260507203522 65 25 4.0 6.0 0.00 0.00 0.00 78 1019.6
20260507202605 64 16 6.0 8.0 0.00 0.00 0.00 78 1019.4
20260507202513 64 22 5.0 7.0 0.00 0.00 0.00 79 1018.2
20260507201527 64 17 4.0 8.0 0.00 0.00 0.00 79 1019.2
20260507200529 64 1 6.0 9.0 0.00 0.00 0.00 79 1019.0
20260507195532 65 16 6.0 9.0 0.00 0.00 0.00 78 1019.4
20260507195513 64 32 4.0 7.0 0.00 0.00 0.00 78 1018.3
20260507194515 64 44 5.0 8.0 0.00 0.00 0.00 78 1019.4
20260507193537 65 57 5.0 8.0 0.00 0.00 0.00 78 1019.1
20260507192520 63 41 6.0 9.0 0.00 0.00 0.00 81 1019.2
20260507192513 63 46 6.0 8.0 0.00 0.00 0.00 81 1018.7
20260507191536 63 32 5.0 7.0 0.00 0.00 0.00 82 1019.5
20260507190518 62 39 6.0 8.0 0.00 0.00 0.00 83 1020.0
20260507185540 62 25 5.0 8.0 0.00 0.00 0.00 83 1020.1
20260507185513 62 30 4.0 6.0 0.00 0.00 0.00 82 1019.5
20260507184543 63 25 5.0 8.0 0.00 0.00 0.00 81 1020.4
20260507183525 65 22 5.0 8.0 0.00 0.00 0.00 79 1020.2
20260507182527 65 22 7.0 11.0 0.00 0.00 0.00 78 1020.4
20260507182513 64 36 5.0 10.0 0.00 0.00 0.00 79 1019.8
20260507181530 64 354 6.0 8.0 0.00 0.00 0.00 80 1020.8
20260507180532 64 39 4.0 7.0 0.00 0.00 0.00 80 1020.8
20260507175516 65 14 6.0 9.0 0.00 0.00 0.00 79 1020.1
20260507175513 64 17 5.0 10.0 0.00 0.00 0.00 80 1019.0
20260507174519 65 352 6.0 9.0 0.00 0.00 0.00 81 1020.2
20260507173521 63 10 5.0 7.0 0.00 0.00 0.00 85 1020.5
20260507172543 63 6 4.0 6.0 0.00 0.00 0.00 83 1020.4
20260507172513 62 14 1.0 4.0 0.00 0.00 0.00 83 1019.3
20260507171525 62 30 3.0 5.0 0.00 0.00 0.00 85 1020.1
20260507170547 61 46 5.0 8.0 0.00 0.00 0.00 84 1020.4
20260507165523 61 74 4.0 7.0 0.00 0.00 0.00 85 1020.3
20260507165513 61 64 5.0 8.0 0.00 0.00 0.00 85 1019.7
20260507164539 61 46 5.0 9.0 0.00 0.00 0.00 87 1020.4
20260507163517 60 45 2.0 4.0 0.00 0.00 0.00 90 1020.8
20260507162518 59 22 4.0 9.0 0.00 0.00 0.00 91 1020.8
20260507162513 58 359 4.0 8.0 0.00 0.00 0.00 91 1020.3
20260507161520 58 337 4.0 8.0 0.00 0.00 0.00 91 1020.6
20260507160522 58 9 4.0 6.0 0.00 0.00 0.00 93 1021.1
20260507155524 57 19 3.0 6.0 0.00 0.00 0.00 93 1020.6
20260507155513 56 25 3.0 6.0 0.00 0.00 0.00 94 1020.2
20260507154542 57 31 5.0 6.0 0.00 0.00 0.00 95 1020.1
20260507153524 56 15 5.0 7.0 0.00 0.00 0.00 97 1020.1
20260507152525 55 28 9.0 15.0 0.00 0.01 0.00 99 1020.4
20260507152513 55 9 6.0 11.0 0.00 0.00 0.00 99 1020.9
20260507151528 55 15 6.0 15.0 0.00 0.04 0.00 99 1020.8
20260507150530 55 28 4.0 10.0 0.00 0.12 0.00 99 1021.9
20260507145532 55 26 3.0 7.0 0.00 0.13 0.00 99 1021.5
20260507145513 54 23 3.0 5.0 0.00 0.13 0.00 98 1021.5
20260507144537 55 21 5.0 9.0 0.00 0.14 0.00 98 1021.4
20260507143518 55 26 3.0 8.0 0.00 0.14 0.00 98 1021.2
20260507142520 55 21 7.0 11.0 0.00 0.14 0.00 97 1020.9
20260507142513 55 50 5.0 8.0 0.00 0.13 0.00 97 1020.7
20260507141523 56 32 6.0 14.0 0.00 0.14 0.00 97 1020.6
20260507140520 56 23 9.0 14.0 0.00 0.14 0.00 97 1020.2
20260507135516 56 15 7.0 10.0 0.00 0.14 0.00 97 1020.8
20260507135513 55 21 7.0 12.0 0.00 0.15 0.00 98 1020.9
20260507134518 56 356 5.0 8.0 0.00 0.15 0.00 98 1020.6
20260507133515 56 24 6.0 8.0 0.00 0.15 0.00 98 1020.9
20260507132517 56 19 5.0 8.0 0.00 0.15 0.00 98 1020.9
20260507132513 56 38 2.0 6.0 0.00 0.15 0.00 98 1020.7
20260507131519 56 36 6.0 9.0 0.00 0.15 0.00 98 1020.8
20260507130521 56 24 5.0 9.0 0.00 0.15 0.00 98 1020.8
20260507125523 56 25 4.0 6.0 0.00 0.15 0.00 97 1020.6
20260507125513 56 359 4.0 7.0 0.00 0.15 0.00 97 1020.4
20260507124525 56 30 7.0 10.0 0.00 0.15 0.00 97 1020.0
20260507123528 57 24 6.0 8.0 0.00 0.15 0.00 97 1020.0
20260507122529 57 34 4.0 11.0 0.00 0.15 0.00 97 1019.7
20260507122513 56 16 5.0 9.0 0.00 0.15 0.00 97 1019.1
20260507121552 57 37 7.0 10.0 0.00 0.15 0.00 96 1019.3
20260507120516 57 31 6.0 10.0 0.00 0.15 0.00 96 1019.4
20260507115518 57 9 7.0 13.0 0.00 0.15 0.00 96 1019.5
20260507115513 57 18 8.0 14.0 0.00 0.15 0.00 95 1019.4
20260507114520 57 21 7.0 12.0 0.00 0.15 0.00 95 1019.5
20260507113524 58 20 7.0 12.0 0.00 0.15 0.00 95 1019.3
20260507112518 58 20 5.0 12.0 0.00 0.15 0.00 95 1019.2
20260507112513 57 351 4.0 7.0 0.00 0.15 0.00 94 1018.8
20260507111527 58 16 5.0 8.0 0.00 0.15 0.00 94 1019.1
20260507110529 58 19 6.0 9.0 0.00 0.15 0.00 94 1019.0
20260507105551 58 42 5.0 10.0 0.00 0.15 0.00 93 1018.7
20260507105513 58 13 5.0 9.0 0.00 0.15 0.00 93 1018.3
20260507104515 59 15 6.0 8.0 0.00 0.15 0.00 93 1018.7
20260507103517 59 5 3.0 5.0 0.00 0.15 0.00 93 1018.7
20260507102540 59 355 4.0 7.0 0.00 0.15 0.00 93 1018.7
20260507102513 58 21 4.0 8.0 0.00 0.15 0.00 93 1018.1
20260507101522 59 26 4.0 6.0 0.00 0.15 0.00 93 1018.5
20260507100524 59 34 3.0 5.0 0.00 0.15 0.00 93 1018.7
20260507095527 59 20 4.0 7.0 0.00 0.15 0.00 93 1018.5
20260507095513 59 13 4.0 5.0 0.00 0.15 0.00 94 1018.1
20260507094529 59 348 3.0 6.0 0.00 0.15 0.00 94 1018.5
20260507093531 59 34 2.0 3.0 0.00 0.15 0.00 94 1018.3
20260507092516 60 28 3.0 5.0 0.00 0.15 0.00 94 1018.3
20260507092513 59 13 4.0 6.0 0.00 0.15 0.00 94 1017.9
20260507091518 60 29 4.0 5.0 0.00 0.15 0.00 94 1018.3
20260507090540 60 48 1.0 3.0 0.00 0.15 0.00 95 1018.3
20260507085522 60 11 2.0 5.0 0.00 0.15 0.00 95 1018.5
20260507085513 59 11 3.0 5.0 0.00 0.15 0.00 95 1018.1
20260507084519 60 81 2.0 4.0 0.00 0.15 0.00 95 1018.5
20260507083527 60 32 2.0 5.0 0.00 0.15 0.00 96 1018.5
20260507082529 60 11 2.0 4.0 0.00 0.15 0.00 97 1018.4
20260507082513 59 112 0.0 2.0 0.00 0.15 0.00 97 1017.9
20260507081531 59 33 1.0 3.0 0.00 0.15 0.00 97 1018.3
20260507080515 59 19 2.0 3.0 0.00 0.15 0.00 97 1018.5
20260507075518 59 42 2.0 3.0 0.00 0.15 0.00 98 1018.5
20260507075513 58 41 2.0 3.0 0.00 0.15 0.00 98 1018.1
20260507074520 59 77 1.0 2.0 0.00 0.15 0.00 98 1018.7
20260507073523 59 0.0 0.0 0.00 0.15 0.00 98 1018.7
20260507072525 59 37 2.0 4.0 0.00 0.15 0.00 98 1018.6
20260507072513 58 28 1.0 3.0 0.00 0.15 0.00 98 1018.1
20260507071527 59 23 1.0 2.0 0.00 0.15 0.00 98 1018.5
20260507070529 59 87 2.0 5.0 0.00 0.15 0.00 98 1018.2
20260507065531 59 90 0.0 2.0 0.00 0.15 0.00 97 1017.9
20260507065513 59 45 1.0 2.0 0.00 0.15 0.00 97 1017.5
20260507064536 59 64 0.0 2.0 0.00 0.15 0.00 97 1018.0
20260507063518 59 35 1.0 2.0 0.00 0.15 0.00 97 1018.0
20260507062521 60 333 0.0 2.0 0.00 0.15 0.00 96 1018.0
20260507062513 59 0 0.0 0.0 0.00 0.15 0.00 96 1017.7
20260507061523 60 0.0 1.0 0.00 0.15 0.00 95 1018.1
20260507060519 60 10 0.0 2.0 0.00 0.15 0.00 95 1018.0
20260507055515 60 129 2.0 4.0 0.00 0.15 0.00 96 1017.5
20260507054530 60 9 2.0 4.0 0.00 0.15 0.00 95 1017.6
20260507053532 60 0.0 0.0 0.00 0.15 0.00 95 1017.5
20260507052516 60 30 2.0 6.0 0.00 0.15 0.00 95 1017.5
20260507052513 60 1 2.0 4.0 0.00 0.15 0.00 95 1016.9
20260507051518 60 29 3.0 5.0 0.00 0.15 0.00 95 1017.5
20260507050520 60 28 4.0 6.0 0.00 0.15 0.00 96 1017.6
20260507045523 60 31 2.0 3.0 0.00 0.15 0.15 96 1017.8
20260507045513 60 46 3.0 6.0 0.00 0.15 0.15 96 1017.3
20260507044525 60 24 4.0 8.0 0.00 0.15 0.15 96 1017.9
20260507043528 60 18 3.0 5.0 0.00 0.15 0.15 96 1017.8
20260507042530 60 26 4.0 5.0 0.00 0.15 0.15 97 1017.8
20260507042513 60 26 3.0 7.0 0.00 0.15 0.15 97 1017.3
20260507041532 60 45 5.0 8.0 0.00 0.15 0.15 97 1017.8
20260507040517 60 345 0.0 2.0 0.00 0.15 0.15 97 1017.8
20260507035519 60 20 5.0 6.0 0.00 0.15 0.15 97 1017.5
20260507035513 60 10 4.0 7.0 0.00 0.15 0.15 97 1016.9
20260507034521 60 3 4.0 5.0 0.00 0.15 0.15 97 1017.5
20260507033524 60 19 5.0 9.0 0.00 0.15 0.15 97 1017.3
20260507032520 60 19 4.0 7.0 0.00 0.15 0.15 96 1017.3
20260507032513 60 25 4.0 8.0 0.00 0.15 0.15 96 1016.7
20260507031516 60 23 7.0 9.0 0.00 0.15 0.15 96 1017.3
20260507030530 60 45 4.0 5.0 0.00 0.15 0.15 95 1017.3
20260507025532 60 27 3.0 4.0 0.00 0.15 0.15 95 1017.1
20260507025513 60 26 2.0 4.0 0.00 0.15 0.15 95 1016.5
20260507024517 60 35 2.0 4.0 0.00 0.15 0.15 95 1017.2
20260507023519 60 62 2.0 4.0 0.00 0.15 0.15 95 1016.6
20260507022521 60 73 3.0 4.0 0.00 0.15 0.15 95 1016.6
20260507022513 60 32 4.0 6.0 0.00 0.15 0.15 95 1016.0
20260507021523 60 31 3.0 5.0 0.00 0.15 0.15 95 1016.6
20260507020546 61 14 1.0 3.0 0.00 0.15 0.15 94 1016.6
20260507015528 61 34 4.0 5.0 0.00 0.15 0.15 94 1016.4
20260507015513 60 17 4.0 6.0 0.00 0.15 0.15 94 1015.7
20260507014550 61 26 3.0 5.0 0.00 0.15 0.15 94 1016.4
20260507013553 61 40 2.0 4.0 0.00 0.15 0.15 94 1016.2